Location: Lourdes
(43.1000°N, 0.0500°W)
Time: 05:03:34
(UTC+00:00)

CZ-4 R/B - Pass Details

Date: 30 November 2020
Orbit: 532 x 598 km, 97.7° (Epoch: 24 January)

Event Time Altitude Azimuth Distance (km) Brightness Sun altitude
Exits shadow 17:40:38 19° 53° (NE) 1,359 2.7 -13.2°
Drops below altitude 10° 17:42:59 10° 18° (NNE) 1,877 3.7 -13.6°
Sets 17:45:35 0° 2° (N) 2,793 4.7 -14.1°
